User: anonymous   Login
Location: Prairie State College
(41.5244°N, 87.6382°W)
Time: 18:30:13
(UTC-05:00)
Language:

Cosmos 1140 Rocket - Orbit

View from above orbital plane
View from above orbital plane
View from above satellite
View from above satellite

Ground track
Ground track

The orbit data is extracted from the following two-line orbital elements,

1 11574U 79089B   16241.84604088  .00000027  00000-0  16754-4 0  9999
2 11574  74.0694  38.6381 0015695  14.6000 345.5606 14.40586154935044
Epoch (UTC): 28 August 2016 20:18:17
Eccentricity: 0.0015695
inclination: 74.0694°
perigee height: 745 km
apogee height: 768 km
right ascension of ascending node: 38.6381°
argument of perigee: 14.6000°
revolutions per day: 14.40586154
mean anomaly at epoch: 345.5606°
orbit number at epoch: 93504

The dashed part of the orbit path shows where the satellite is in the earth's shadow,  

DLR